Location: Dana
(41.8364°N, 106.7042°W)
Time: 01:43:09
(UTC+00:00)

Vanguard 1 Rocket - All Passes

Search period start: 12 May 2026 00:00
Search period end: 22 May 2026 00:00
Orbit: 655 x 4212 km, 34.3° (Epoch: 11 May)

Date Brightness Start Highest point End Pass type
(mag) Time Alt. Az. Time Alt. Az. Time Alt. Az.
12 May - 00:17:16 10° WSW 00:29:44 66° S 00:52:42 10° E daylight
12 May - 02:42:46 10° W 02:59:54 63° SSW 03:25:22 10° ESE visible
12 May - 05:11:03 10° W 05:30:34 39° SW 05:52:36 10° SSE visible
12 May - 07:50:05 10° WSW 07:58:47 13° SW 08:07:20 10° SW visible
12 May - 20:44:27 10° S 20:50:54 24° SE 21:00:57 10° E daylight
12 May - 23:05:32 10° SW 23:15:47 58° SSE 23:35:24 10° E daylight
13 May - 01:29:56 10° W 01:44:29 67° S 02:09:12 10° ESE daylight
13 May - 03:56:36 10° W 04:15:09 50° SSW 04:39:18 10° SE visible
13 May - 06:28:21 10° W 06:44:37 23° SW 07:01:30 10° S visible
13 May - 19:38:36 10° SE 19:39:28 10° SE 19:40:23 10° ESE daylight
13 May - 21:54:25 10° SW 22:02:45 44° SSE 22:18:13 10° E daylight
14 May - 00:17:40 10° WSW 00:29:43 66° S 00:52:15 10° E daylight
14 May - 02:43:08 10° W 02:59:38 58° SSW 03:24:32 10° SE visible
14 May - 05:11:44 10° W 05:29:51 34° SW 05:50:48 10° SSE visible
14 May - 20:44:06 10° SSW 20:50:35 28° SE 21:01:14 10° E daylight
14 May - 23:05:53 10° WSW 23:15:46 60° SSE 23:35:02 10° E daylight
15 May - 01:30:22 10° W 01:44:24 64° S 02:08:34 10° ESE daylight
15 May - 03:57:05 10° W 04:14:39 44° SSW 04:37:56 10° SSE visible
15 May - 06:30:30 10° W 06:43:48 18° SW 06:57:50 10° SSW visible
15 May - 19:35:36 10° SSE 19:39:05 14° SE 19:43:28 10° ESE daylight
15 May - 21:54:37 10° SW 22:02:41 48° SSE 22:18:01 10° E daylight
16 May - 00:18:06 10° WSW 00:29:45 66° S 00:51:45 10° ESE daylight
16 May - 02:43:35 10° W 02:59:22 53° SSW 03:23:30 10° SE visible
16 May - 05:12:44 10° W 05:29:11 28° SW 05:48:29 10° S visible
16 May - 20:44:00 10° SSW 20:50:25 32° SE 21:01:22 10° E daylight
16 May - 23:06:19 10° WSW 23:15:51 62° S 23:34:39 10° E daylight
17 May - 01:30:49 10° W 01:44:19 60° SSW 02:07:46 10° ESE daylight
17 May - 03:57:44 10° W 04:14:11 38° SSW 04:36:14 10° SSE visible
17 May - 06:34:37 10° WSW 06:43:07 13° SW 06:52:02 10° SSW visible
17 May - 19:34:33 10° S 19:38:48 17° SE 19:44:38 10° E daylight
17 May - 21:54:56 10° SW 22:02:44 52° SSE 22:17:47 10° E daylight
18 May - 00:18:35 10° W 00:29:50 63° S 00:51:10 10° ESE daylight
18 May - 02:44:07 10° W 02:59:06 47° SSW 03:22:12 10° SE visible
18 May - 05:14:16 10° W 05:28:36 22° SW 05:45:26 10° S visible
18 May - 20:44:05 10° SW 20:50:22 37° SSE 21:01:25 10° E daylight
18 May - 23:06:47 10° WSW 23:16:00 62° S 23:34:14 10° E daylight
19 May - 01:31:19 10° W 01:44:16 54° SSW 02:06:48 10° SE daylight
19 May - 03:58:38 10° W 04:13:46 32° SW 04:34:05 10° SSE visible
19 May - 19:34:05 10° S 19:38:39 21° SE 19:45:19 10° E daylight
19 May - 21:55:21 10° WSW 22:02:53 55° SSE 22:17:32 10° E daylight
20 May - 00:19:06 10° W 00:29:56 60° S 00:50:29 10° ESE daylight
20 May - 02:44:46 10° W 02:58:54 41° SSW 03:20:36 10° SSE visible
20 May - 05:16:47 10° WSW 05:28:07 17° SW 05:41:13 10° SSW visible
20 May - 20:44:19 10° SW 20:50:27 41° SSE 21:01:24 10° E daylight
20 May - 23:07:18 10° WSW 23:16:12 61° S 23:33:48 10° ESE daylight
21 May - 01:31:55 10° W 01:44:15 49° SSW 02:05:37 10° SE daylight
21 May - 03:59:54 10° W 04:13:26 26° SW 04:31:23 10° S visible
21 May - 19:33:55 10° SSW 19:38:38 25° SE 19:45:46 10° E daylight
21 May - 21:55:49 10° WSW 22:03:07 56° S 22:17:18 10° E daylight
